Regional Weather Roundup
Issued by NWS Austin/San Antonio, TX

Current Version | Previous Version | Text Only | Print | Product List | Glossary On
Versions: 1 2 3 4 5 6 7 8 9 10 11 12 13 14 15 16 17 18 19 20 21 22 23 24 25 26 27 28 29 30 31 32 33 34 35 36 37 38 39 40 41 42 43 44 45 46 47 48 49 50
000
ASUS44 KEWX 052010
RWREWX
SOUTH TEXAS REGIONAL WEATHER ROUNDUP
NATIONAL WEATHER SERVICE AUSTIN/SAN ANTONIO TX
300 PM CDT SUN JUL 05 2020

NOTE: "FAIR" INDICATED FEW OR NO CLOUDS BELOW 12,000 FEET WITH NO
SIGNIFICANT WEATHER AND/OR OBSTRUCTIONS TO VISIBILITY.

* - THESE STATIONS ARE NOT NWS OR FAA STATIONS...AND ARE NOT SUBJECT
    TO NWS AND FAA QUALITY CONTROL.

TXZ171-172-183>190-052100-
TEXAS HILL COUNTRY AND EDWARDS PLATEAU

CITY           SKY/WX    TMP DP  RH WIND       PRES   REMARKS
JUNCTION       MOSUNNY  101  63  28 E8        29.87F HX 103
*LLANO         SUNNY    104  63  25 SE8       29.86F HX 106
BURNET         MOSUNNY   96  58  27 VRB3      29.88F HX  95
*HORSESHOE BAY MOSUNNY   99  57  25 SW6       29.86F HX  97
*LAGO VISTA    MOSUNNY   97  67  37 SE6       29.89F HX 101
*KERRVILLE     SUNNY     98  58  26 SE6       29.90F HX  98
*FREDERICKSBRG SUNNY     96  57  27 S5        29.90F HX  95
*ROCKSPRINGS   MOSUNNY   99  55  23 SE9G18    29.97F HX  97
*BOERNE        SUNNY     95  61  31 S9        29.90F HX  95
*CASTROVILLE   SUNNY    102  59  24 MISG      29.86F HX 102
HONDO          SUNNY    100  63  29 SE14G21   29.85F HX 102
*UVALDE          N/A    100  62  29 S9        29.85F HX 101
DEL RIO        SUNNY    106  59  21 SE13G18   29.80F HX 106
*LAUGHLIN AFB  MOSUNNY  103  56  20 SE13G20   29.81F HX 102
*SPOFFORD      NOT AVBL
*EAGLE PASS    NOT AVBL
CARRIZO SPRGS  SUNNY    104  61  24 W7        29.79F HX 105
$$

TXZ173-191>194-202-209-217>225-228-052100-
CENTRAL AND SOUTH CENTRAL TEXAS

CITY           SKY/WX    TMP DP  RH WIND       PRES   REMARKS
GEORGETOWN     SUNNY     97  68  38 SW8       29.87F HX 102
*TAYLOR        SUNNY     95  70  44 SE7       29.85F HX 101
AUSTIN/BERGSTM MOSUNNY   95  68  41 S7        29.85F HX  99
AUSTIN/MABRY   SUNNY     99  68  36 VRB3      29.87F HX 104
*PFLUGERVILLE  SUNNY     95  68  41 S6        29.86F HX  99
SAN MARCOS     SUNNY     98  67  36 SW8       29.86F HX 102
NEW BRAUNFELS  SUNNY    100  63  29 VRB7      29.84F HX 102
*RANDOLPH AFB  MOSUNNY   98  63  31 S7        29.85F HX  99
*SEGUIN        MOSUNNY   99  65  32 S5        29.87F HX 102
SAN ANTONIO    PTSUNNY   99  65  32 VRB7      29.86F HX 102
STINSON FIELD  SUNNY     97  67  37 S10G16    29.82F HX 101
*KELLY FIELD   MOSUNNY  100  61  27 S3        29.84F HX 100
*PLEASANTON    SUNNY     99  71  40 SE5       29.84F HX 107
*KENEDY        SUNNY     96  70  41 SE9       29.85F HX 102
*LA GRANGE     PTSUNNY   97  70  41 S6        29.84F HX 103
*GIDDINGS      PTSUNNY   98  67  35 SW6       29.87F HX 102
*GONZALES      CLOUDY    97  70  41 SE8       29.84F HX 104
$$

TXZ163>164-176>182-195>201-210>213-226-227-235-052100-
SOUTHEAST TEXAS

CITY           SKY/WX    TMP DP  RH WIND       PRES   REMARKS
COLLEGE STN    PTSUNNY   90  75  61 SE9       29.86F HX 100
*BRYAN         PTSUNNY   91  76  61 S8        29.87F HX 102
*CALDWELL      PTSUNNY   93  71  48 S6        29.86F HX  99
*CROCKETT      NOT AVBL
*BRENHAM       PTSUNNY   90  76  64 E8        29.87S HX 102
HUNTSVILLE     PTSUNNY   89  72  56 S8        29.87F HX  96
CONROE         PTSUNNY   91  74  57 S3        29.88F HX 100
HOUSTON BUSH   MOSUNNY   94  73  50 SW8       29.87F HX 103
HOUSTON HOBBY  PTSUNNY   93  72  50 MISG      29.87F HX 101
*HOUSTON SW AP MOSUNNY   91  75  60 SW5       29.89F HX 101
PEARLAND       SUNNY     92  71  50 SW3       29.89F HX  98
HOUSTON HOOKS  MOSUNNY   90  71  53 W6        29.87F HX  96
ELLINGTON FLD  PTSUNNY   90  73  58 SW3       29.87F HX  98
SUGAR LAND     PTSUNNY   92  74  55 SW5       29.87F HX 101
*HOUSTON EXEC  MOSUNNY   93  73  52 CALM      29.88F HX 102
*CLEVELAND MUN PTSUNNY   89  73  60 CALM      29.89F HX  97
*WHARTON       MOSUNNY   93  67  43 S6        29.88F HX  96
*COLUMBUS      FAIR      91  73  55 S6        29.88F HX  99
*EAGLE LAKE    PTSUNNY   94  76  56 E8        29.87F HX 106
$$

TXZ214>216-236>238-052100-
THE UPPER TEXAS COAST

CITY           SKY/WX    TMP DP  RH WIND       PRES   REMARKS
*ORANGE        MOSUNNY   91  73  54 NW5       29.90S HX 100
PORT ARTHUR    PTSUNNY   90  73  57 NW6       29.88F HX  98
GALVESTON      SUNNY     90  77  65 S20       29.89F HX 103
ANGLETON       MOSUNNY   91  75  59 SW7       29.88F HX 101
*BAY CITY      MOSUNNY   91  77  63 S8        29.88F HX 105
PALACIOS       SUNNY     89  77  67 S12       29.87F HX 101
$$

TXZ229>234-239>247-052100-
TEXAS COASTAL BEND AND RIO GRANDE PLAINS

CITY           SKY/WX    TMP DP  RH WIND       PRES   REMARKS
VICTORIA       SUNNY     95  72  47 CALM      29.85F HX 103
*BEEVILLE      SUNNY     96  78  55 SW7       29.84F HX 113
ROCKPORT       SUNNY     90  76  63 S12       29.85F HX 101
*PORT ARANSAS  SUNNY     86  78  76 SE13      29.86F HX  99
*PORT LAVACA   SUNNY     94  79  62 S12       29.87S HX 111
*INGLESIDE     SUNNY     92  79  65 S12       29.84F HX 108
CORPUS CHRISTI MOSUNNY   94  79  61 S8        29.83F HX 111
CORPUS NAS     SUNNY     90  80  72 S17       29.84F HX 107
*ROBSTOWN      SUNNY     98  72  42 S8        29.83F HX 107
ALICE          SUNNY    101  71  38 S9        29.81F HX 109
KINGSVILLE NAS PTSUNNY   99  70  38 S7        29.82F HX 106
COTULLA        SUNNY    103  65  29 SE7       29.80F HX 106
LAREDO         SUNNY    102  67  31 S9        29.81F HX 107
$$

TXZ248>255-052100-
DEEP SOUTH TEXAS

CITY           SKY/WX    TMP DP  RH WIND       PRES   REMARKS
BROWNSVILLE    MOSUNNY   94  73  50 S18G25    29.84F HX 103
PORT ISABEL    SUNNY     95  72  47 S12G24    29.83F HX 103
HARLINGEN      SUNNY     98  69  38 S15G26    29.82F HX 104
*HEBBRONVILLE  SUNNY     99  61  28 S10       29.84F HX  99
MCALLEN        SUNNY    100  66  32 S15G22    29.82F HX 104
*WESLACO       SUNNY     98  68  37 S10G18    29.81F HX 103
FALFURRIAS     NOT AVBL
EDINBURG       SUNNY     98  62  30 S12       29.82F HX  99
*ZAPATA        SUNNY    102  65  29 SE8       29.82F HX 106
$$

TXZ213>215-236>238-242>244-246-247-251-254-255-052100-
CMAN STATIONS

STATION/POSITION TIME  TEMP    WIND        PRES    WAVE
                       AIR SEA DIR/SP/G            HT/PER
                 (UTC) (F)     (DEG/KT/KT) (MB)    (FT/S)
SABINE PASS      1930   89 87  230/  8/ 15 1013.8
NORTH JETTY/GLS  1930   87 85  210/ 15/ 17 1011.0
EAGLE POINT      1930   89 86  220/  6/ 10 1011.7
MORGANS POINT    1930      87                N/A
PORT O`CONNOR    1930   85 84  200/ 11/ 16 1011.4
PORT ARANSAS     2000   83 85  150/ 12/ 13 1010.7
MALAQUITE BEACH  1930   82     130/ 12/ 14   N/A
BAFFIN BAY       1930   86 92  120/ 15/ 17 1010.7
PORT ISABEL      1930   87 82  150/ 21/ 24 1013.0
$$




USA.gov is the U.S. government's official web portal to all federal, state and local government web resources and services.